GOKTURK 1A

Last updated on Thu Oct 30 2025 00:02:32 GMT+0000 (Coordinated Universal Time)

1 41875U 16073A 25302.51881067 .00000740 00000+0 15408-3 0 9991 2 41875 98.1442 195.4712 0001261 80.9564 279.1780 14.62853108475105
UTC large
Height (km)
Speed (km/s)
/
Latitude / Longitude
Inclination (degrees)
Orbital Period (minutes)
Azimuth
Elevation
Range (km)
Doppler Factor

Next 0 passes for location: London (51.5072 / 0.1276)

Sorry there are no passes over London.